| time (UTC) | temp C | wind direction | speed KPH | gust KPH | rain 1hr cm | rain 24hr cm | rain mn cm | humidity % | barometer mb |
| 20260508025132 | 21 | 272 | 0.0 | 1.6 | 0.00 | 0.00 | 0.00 | 28 | 1022.1 |
| 20260508024626 | 21 | 304 | 0.0 | 1.6 | 0.00 | 0.00 | 0.00 | 26 | 1022.1 |
| 20260508024121 | 22 | 112 | 0.0 | 0.0 | 0.00 | 0.00 | 0.00 | 24 | 1022.4 |
| 20260508023617 | 22 | 163 | 0.0 | 0.0 | 0.00 | 0.00 | 0.00 | 24 | 1022.1 |
| 20260508023110 | 22 | 335 | 0.0 | 0.0 | 0.00 | 0.00 | 0.00 | 23 | 1022.1 |
| 20260508022606 | 22 | 259 | 0.0 | 0.0 | 0.00 | 0.00 | 0.00 | 22 | 1021.8 |
| 20260508022101 | 22 | 248 | 0.0 | 0.0 | 0.00 | 0.00 | 0.00 | 22 | 1022.1 |
| 20260508021556 | 22 | 258 | 0.0 | 0.0 | 0.00 | 0.00 | 0.00 | 21 | 1021.8 |
| 20260508021051 | 22 | 353 | 0.0 | 0.0 | 0.00 | 0.00 | 0.00 | 22 | 1022.1 |
| 20260508020546 | 22 | 286 | 0.0 | 0.0 | 0.00 | 0.00 | 0.00 | 22 | 1021.8 |
| 20260508020040 | 23 | 297 | 0.0 | 1.6 | 0.00 | 0.00 | 0.00 | 22 | 1022.1 |
| 20260508015535 | 23 | 325 | 0.0 | 3.2 | 0.00 | 0.00 | 0.00 | 21 | 1021.8 |
| 20260508015032 | 23 | 68 | 0.0 | 3.2 | 0.00 | 0.00 | 0.00 | 21 | 1022.1 |
| 20260508014525 | 23 | 275 | 0.0 | 3.2 | 0.00 | 0.00 | 0.00 | 23 | 1022.1 |
| 20260508014020 | 23 | 253 | 0.0 | 1.6 | 0.00 | 0.00 | 0.00 | 22 | 1021.8 |
| 20260508013517 | 23 | 286 | 0.0 | 1.6 | 0.00 | 0.00 | 0.00 | 22 | 1021.8 |
| 20260508013010 | 23 | 290 | 0.0 | 0.0 | 0.00 | 0.00 | 0.00 | 22 | 1021.8 |
| 20260508012505 | 24 | 208 | 0.0 | 1.6 | 0.00 | 0.00 | 0.00 | 22 | 1022.1 |
| 20260508012003 | 24 | 289 | 0.0 | 3.2 | 0.00 | 0.00 | 0.00 | 22 | 1022.1 |
| 20260508011957 | 24 | 302 | 0.0 | 3.2 | 0.00 | 0.00 | 0.00 | 22 | 1022.1 |
| 20260508010951 | 25 | 15 | 0.0 | 3.2 | 0.00 | 0.00 | 0.00 | 22 | 1022.1 |
| 20260508010446 | 25 | 106 | 0.0 | 3.2 | 0.00 | 0.00 | 0.00 | 21 | 1022.1 |
| 20260508005940 | 25 | 356 | 0.0 | 1.6 | 0.00 | 0.00 | 0.00 | 18 | 1022.1 |
| 20260508005929 | 25 | 81 | 0.0 | 4.8 | 0.00 | 0.00 | 0.00 | 19 | 1022.1 |
| 20260508005534 | 25 | 193 | 0.0 | 1.6 | 0.00 | 0.00 | 0.00 | 18 | 1021.8 |
| 20260508005034 | 25 | 127 | 0.0 | 3.2 | 0.00 | 0.00 | 0.00 | 17 | 1022.1 |
| 20260508003920 | 25 | 289 | 0.0 | 4.8 | 0.00 | 0.00 | 0.00 | 19 | 1022.1 |
| 20260508003417 | 25 | 43 | 0.0 | 3.2 | 0.00 | 0.00 | 0.00 | 20 | 1022.1 |
| 20260508002909 | 25 | 148 | 0.0 | 3.2 | 0.00 | 0.00 | 0.00 | 20 | 1022.1 |
| 20260508002405 | 25 | 276 | 0.0 | 4.8 | 0.00 | 0.00 | 0.00 | 19 | 1021.8 |
| 20260508001902 | 25 | 343 | 0.0 | 6.4 | 0.00 | 0.00 | 0.00 | 17 | 1021.8 |
| 20260508001855 | 25 | 40 | 0.0 | 6.4 | 0.00 | 0.00 | 0.00 | 16 | 1021.8 |
| 20260508000850 | 25 | 83 | 0.0 | 3.2 | 0.00 | 0.00 | 0.00 | 16 | 1022.1 |
| 20260508000349 | 26 | 343 | 0.0 | 3.2 | 0.00 | 0.00 | 0.00 | 14 | 1022.1 |
| 20260508000342 | 26 | 63 | 0.0 | 3.2 | 0.00 | 0.00 | 0.00 | 14 | 1021.8 |
| 20260507235336 | 26 | 41 | 0.0 | 3.2 | 0.00 | 0.00 | 0.00 | 15 | 1022.1 |
| 20260507235331 | 26 | 299 | 0.0 | 4.8 | 0.00 | 0.00 | 0.00 | 12 | 1022.1 |
| 20260507234326 | 26 | 237 | 0.0 | 4.8 | 0.00 | 0.00 | 0.00 | 12 | 1022.1 |
| 20260507234320 | 26 | 271 | 0.0 | 3.2 | 0.00 | 0.00 | 0.00 | 11 | 1022.1 |
| 20260507233315 | 26 | 6 | 0.0 | 6.4 | 0.00 | 0.00 | 0.00 | 12 | 1021.8 |
| 20260507232810 | 26 | 305 | 0.0 | 6.4 | 0.00 | 0.00 | 0.00 | 13 | 1022.1 |
| 20260507232306 | 26 | 286 | 0.0 | 3.2 | 0.00 | 0.00 | 0.00 | 12 | 1022.1 |
| 20260507231801 | 26 | 186 | 0.0 | 1.6 | 0.00 | 0.00 | 0.00 | 13 | 1022.1 |
| 20260507231254 | 26 | 104 | 0.0 | 4.8 | 0.00 | 0.00 | 0.00 | 15 | 1022.4 |
| 20260507230753 | 26 | 65 | 0.0 | 3.2 | 0.00 | 0.00 | 0.00 | 13 | 1022.4 |
| 20260507230749 | 26 | 348 | 0.0 | 4.8 | 0.00 | 0.00 | 0.00 | 14 | 1022.4 |
| 20260507230241 | 26 | 45 | 0.0 | 4.8 | 0.00 | 0.00 | 0.00 | 13 | 1022.4 |
| 20260507225234 | 26 | 71 | 0.0 | 4.8 | 0.00 | 0.00 | 0.00 | 11 | 1022.8 |
| 20260507224730 | 26 | 314 | 0.0 | 3.2 | 0.00 | 0.00 | 0.00 | 10 | 1022.8 |
| 20260507224223 | 26 | 224 | 0.0 | 3.2 | 0.00 | 0.00 | 0.00 | 11 | 1022.8 |
| 20260507223719 | 26 | 283 | 0.0 | 3.2 | 0.00 | 0.00 | 0.00 | 10 | 1022.8 |
| 20260507223215 | 26 | 4 | 0.0 | 4.8 | 0.00 | 0.00 | 0.00 | 11 | 1022.8 |
| 20260507222709 | 26 | 103 | 0.0 | 4.8 | 0.00 | 0.00 | 0.00 | 12 | 1023.1 |
| 20260507222204 | 26 | 159 | 0.0 | 3.2 | 0.00 | 0.00 | 0.00 | 10 | 1023.1 |
| 20260507221701 | 26 | 92 | 0.0 | 1.6 | 0.00 | 0.00 | 0.00 | 10 | 1023.5 |
| 20260507221655 | 26 | 82 | 0.0 | 4.8 | 0.00 | 0.00 | 0.00 | 10 | 1023.5 |
| 20260507220649 | 26 | 6 | 0.0 | 4.8 | 0.00 | 0.00 | 0.00 | 14 | 1023.5 |
| 20260507220144 | 26 | 70 | 0.0 | 3.2 | 0.00 | 0.00 | 0.00 | 12 | 1023.5 |
| 20260507215644 | 26 | 348 | 0.0 | 1.6 | 0.00 | 0.00 | 0.00 | 11 | 1023.8 |
| 20260507215134 | 26 | 28 | 0.0 | 4.8 | 0.00 | 0.00 | 0.00 | 11 | 1023.8 |
| 20260507214630 | 26 | 274 | 0.0 | 4.8 | 0.00 | 0.00 | 0.00 | 13 | 1023.5 |
| 20260507214124 | 26 | 188 | 0.0 | 4.8 | 0.00 | 0.00 | 0.00 | 13 | 1023.5 |
| 20260507213618 | 26 | 19 | 0.0 | 3.2 | 0.00 | 0.00 | 0.00 | 14 | 1023.8 |
| 20260507213116 | 26 | 262 | 0.0 | 1.6 | 0.00 | 0.00 | 0.00 | 16 | 1023.8 |
| 20260507212608 | 26 | 266 | 0.0 | 1.6 | 0.00 | 0.00 | 0.00 | 15 | 1024.1 |
| 20260507212103 | 25 | 16 | 0.0 | 1.6 | 0.00 | 0.00 | 0.00 | 15 | 1023.8 |
| 20260507211602 | 25 | 345 | 0.0 | 1.6 | 0.00 | 0.00 | 0.00 | 13 | 1023.8 |
| 20260507211555 | 25 | 16 | 0.0 | 1.6 | 0.00 | 0.00 | 0.00 | 13 | 1024.1 |
| 20260507210548 | 25 | 257 | 0.0 | 1.6 | 0.00 | 0.00 | 0.00 | 13 | 1024.1 |
| 20260507210044 | 25 | 305 | 0.0 | 3.2 | 0.00 | 0.00 | 0.00 | 13 | 1024.1 |
| 20260507205538 | 25 | 308 | 0.0 | 4.8 | 0.00 | 0.00 | 0.00 | 17 | 1024.1 |
| 20260507205034 | 25 | 326 | 0.0 | 4.8 | 0.00 | 0.00 | 0.00 | 20 | 1024.5 |
| 20260507204530 | 25 | 305 | 0.0 | 3.2 | 0.00 | 0.00 | 0.00 | 17 | 1024.5 |
| 20260507204023 | 25 | 19 | 0.0 | 3.2 | 0.00 | 0.00 | 0.00 | 20 | 1024.5 |
| 20260507203518 | 25 | 263 | 0.0 | 4.8 | 0.00 | 0.00 | 0.00 | 20 | 1024.5 |
| 20260507202508 | 25 | 25 | 0.0 | 4.8 | 0.00 | 0.00 | 0.00 | 21 | 1024.5 |
| 20260507202003 | 25 | 214 | 0.0 | 4.8 | 0.00 | 0.00 | 0.00 | 20 | 1024.8 |
| 20260507201459 | 25 | 98 | 0.0 | 3.2 | 0.00 | 0.00 | 0.00 | 20 | 1024.8 |
| 20260507200953 | 24 | 345 | 0.0 | 3.2 | 0.00 | 0.00 | 0.00 | 21 | 1024.8 |
| 20260507200447 | 24 | 128 | 0.0 | 4.8 | 0.00 | 0.00 | 0.00 | 19 | 1024.8 |
| 20260507195944 | 24 | 257 | 0.0 | 4.8 | 0.00 | 0.00 | 0.00 | 21 | 1024.8 |
| 20260507195438 | 23 | 59 | 0.0 | 0.0 | 0.00 | 0.00 | 0.00 | 20 | 1024.8 |
| 20260507194933 | 23 | 61 | 0.0 | 1.6 | 0.00 | 0.00 | 0.00 | 19 | 1024.8 |
| 20260507194430 | 23 | 195 | 0.0 | 1.6 | 0.00 | 0.00 | 0.00 | 23 | 1025.3 |
| 20260507194423 | 23 | 82 | 0.0 | 4.8 | 0.00 | 0.00 | 0.00 | 22 | 1025.3 |
| 20260507193419 | 23 | 104 | 1.6 | 4.8 | 0.00 | 0.00 | 0.00 | 24 | 1025.3 |
| 20260507193414 | 22 | 291 | 0.0 | 3.2 | 0.00 | 0.00 | 0.00 | 23 | 1025.3 |
| 20260507192407 | 22 | 356 | 0.0 | 3.2 | 0.00 | 0.00 | 0.00 | 23 | 1025.3 |
| 20260507192401 | 22 | 168 | 0.0 | 4.8 | 0.00 | 0.00 | 0.00 | 23 | 1025.3 |
| 20260507192005 | 22 | 348 | 0.0 | 4.8 | 0.00 | 0.00 | 0.00 | 24 | 1025.3 |
| 20260507190852 | 22 | 234 | 0.0 | 4.8 | 0.00 | 0.00 | 0.00 | 24 | 1025.3 |
| 20260507190347 | 22 | 51 | 0.0 | 3.2 | 0.00 | 0.00 | 0.00 | 22 | 1025.3 |
| 20260507185843 | 22 | 247 | 0.0 | 1.6 | 0.00 | 0.00 | 0.00 | 23 | 1025.6 |
| 20260507185338 | 22 | 88 | 0.0 | 1.6 | 0.00 | 0.00 | 0.00 | 22 | 1025.9 |
| 20260507184831 | 22 | 302 | 0.0 | 3.2 | 0.00 | 0.00 | 0.00 | 21 | 1025.6 |
| 20260507184328 | 22 | 323 | 0.0 | 4.8 | 0.00 | 0.00 | 0.00 | 23 | 1025.6 |
| 20260507183823 | 22 | 299 | 0.0 | 4.8 | 0.00 | 0.00 | 0.00 | 23 | 1025.9 |
| 20260507183817 | 22 | 134 | 0.0 | 3.2 | 0.00 | 0.00 | 0.00 | 21 | 1025.6 |
| 20260507182813 | 21 | 235 | 0.0 | 3.2 | 0.00 | 0.00 | 0.00 | 22 | 1025.6 |
| 20260507182307 | 21 | 49 | 0.0 | 1.6 | 0.00 | 0.00 | 0.00 | 21 | 1025.9 |
| 20260507181802 | 21 | 97 | 0.0 | 1.6 | 0.00 | 0.00 | 0.00 | 23 | 1025.9 |
| 20260507181258 | 21 | 34 | 0.0 | 1.6 | 0.00 | 0.00 | 0.00 | 23 | 1025.9 |
| 20260507181248 | 21 | 64 | 0.0 | 1.6 | 0.00 | 0.00 | 0.00 | 23 | 1025.9 |
| 20260507180852 | 21 | 6 | 0.0 | 1.6 | 0.00 | 0.00 | 0.00 | 24 | 1025.9 |
| 20260507175743 | 21 | 322 | 0.0 | 1.6 | 0.00 | 0.00 | 0.00 | 25 | 1025.9 |
| 20260507175238 | 21 | 171 | 0.0 | 1.6 | 0.00 | 0.00 | 0.00 | 24 | 1025.9 |
| 20260507175233 | 21 | 230 | 0.0 | 1.6 | 0.00 | 0.00 | 0.00 | 26 | 1025.9 |
| 20260507174228 | 21 | 44 | 0.0 | 1.6 | 0.00 | 0.00 | 0.00 | 23 | 1025.9 |
| 20260507173723 | 21 | 74 | 0.0 | 0.0 | 0.00 | 0.00 | 0.00 | 23 | 1025.9 |
| 20260507173718 | 21 | 192 | 0.0 | 0.0 | 0.00 | 0.00 | 0.00 | 22 | 1025.9 |
| 20260507172713 | 21 | 252 | 0.0 | 0.0 | 0.00 | 0.00 | 0.00 | 23 | 1025.9 |
| 20260507172207 | 21 | 318 | 0.0 | 0.0 | 0.00 | 0.00 | 0.00 | 24 | 1025.9 |
| 20260507171702 | 21 | 221 | 0.0 | 0.0 | 0.00 | 0.00 | 0.00 | 23 | 1025.9 |
| 20260507171158 | 22 | 191 | 0.0 | 0.0 | 0.00 | 0.00 | 0.00 | 25 | 1025.9 |
| 20260507170651 | 22 | 165 | 0.0 | 0.0 | 0.00 | 0.00 | 0.00 | 25 | 1025.9 |
| 20260507170146 | 22 | 255 | 0.0 | 0.0 | 0.00 | 0.00 | 0.00 | 24 | 1025.9 |
| 20260507165642 | 22 | 111 | 0.0 | 0.0 | 0.00 | 0.00 | 0.00 | 21 | 1025.9 |
| 20260507165137 | 22 | 215 | 0.0 | 0.0 | 0.00 | 0.00 | 0.00 | 22 | 1026.3 |
| 20260507165132 | 22 | 200 | 0.0 | 0.0 | 0.00 | 0.00 | 0.00 | 21 | 1026.3 |
| 20260507164127 | 22 | 179 | 0.0 | 0.0 | 0.00 | 0.00 | 0.00 | 22 | 1025.9 |
| 20260507163622 | 21 | 220 | 0.0 | 0.0 | 0.00 | 0.00 | 0.00 | 19 | 1026.3 |
| 20260507163116 | 21 | 217 | 0.0 | 0.0 | 0.00 | 0.00 | 0.00 | 22 | 1025.9 |
| 20260507162613 | 21 | 225 | 0.0 | 0.0 | 0.00 | 0.00 | 0.00 | 20 | 1025.9 |
| 20260507162106 | 21 | 313 | 0.0 | 0.0 | 0.00 | 0.00 | 0.00 | 23 | 1025.9 |
| 20260507161602 | 21 | 188 | 0.0 | 0.0 | 0.00 | 0.00 | 0.00 | 24 | 1026.3 |
| 20260507161057 | 20 | 177 | 0.0 | 0.0 | 0.00 | 0.00 | 0.00 | 20 | 1025.9 |
| 20260507161051 | 20 | 251 | 0.0 | 0.0 | 0.00 | 0.00 | 0.00 | 22 | 1025.9 |
| 20260507160047 | 20 | 233 | 0.0 | 0.0 | 0.00 | 0.00 | 0.00 | 21 | 1025.9 |
| 20260507155545 | 20 | 192 | 0.0 | 0.0 | 0.00 | 0.00 | 0.00 | 21 | 1025.9 |
| 20260507155538 | 19 | 104 | 0.0 | 0.0 | 0.00 | 0.00 | 0.00 | 25 | 1025.9 |
| 20260507155032 | 20 | 229 | 0.0 | 0.0 | 0.00 | 0.00 | 0.00 | 23 | 1025.9 |
| 20260507154028 | 20 | 298 | 0.0 | 0.0 | 0.00 | 0.00 | 0.00 | 27 | 1026.3 |
| 20260507154022 | 20 | 213 | 0.0 | 0.0 | 0.00 | 0.00 | 0.00 | 23 | 1026.3 |
| 20260507153015 | 19 | 186 | 0.0 | 0.0 | 0.00 | 0.00 | 0.00 | 26 | 1025.9 |
| 20260507152514 | 19 | 208 | 0.0 | 0.0 | 0.00 | 0.00 | 0.00 | 29 | 1025.9 |
| 20260507152508 | 19 | 318 | 0.0 | 0.0 | 0.00 | 0.00 | 0.00 | 22 | 1026.3 |
| 20260507151501 | 18 | 188 | 0.0 | 0.0 | 0.00 | 0.00 | 0.00 | 20 | 1026.3 |
| 20260507150958 | 17 | 232 | 0.0 | 0.0 | 0.00 | 0.00 | 0.00 | 22 | 1026.3 |
| 20260507150450 | 17 | 240 | 0.0 | 0.0 | 0.00 | 0.00 | 0.00 | 27 | 1026.3 |
| 20260507145945 | 16 | 241 | 0.0 | 0.0 | 0.00 | 0.00 | 0.00 | 27 | 1026.3 |
| 20260507145442 | 15 | 232 | 0.0 | 0.0 | 0.00 | 0.00 | 0.00 | 32 | 1026.3 |
| 20260507144936 | 15 | 236 | 0.0 | 0.0 | 0.00 | 0.00 | 0.00 | 29 | 1026.3 |
| 20260507144430 | 14 | 200 | 0.0 | 0.0 | 0.00 | 0.00 | 0.00 | 31 | 1026.3 |
| 20260507143926 | 13 | 284 | 0.0 | 0.0 | 0.00 | 0.00 | 0.00 | 37 | 1025.9 |
| 20260507143421 | 13 | 268 | 0.0 | 0.0 | 0.00 | 0.00 | 0.00 | 42 | 1026.3 |
| 20260507142916 | 13 | 276 | 0.0 | 0.0 | 0.00 | 0.00 | 0.00 | 45 | 1026.3 |
| 20260507142411 | 13 | 271 | 0.0 | 0.0 | 0.00 | 0.00 | 0.00 | 48 | 1026.3 |
| 20260507141906 | 12 | 318 | 0.0 | 0.0 | 0.00 | 0.00 | 0.00 | 52 | 1025.9 |
| 20260507141901 | 12 | 247 | 0.0 | 0.0 | 0.00 | 0.00 | 0.00 | 54 | 1025.9 |
| 20260507140857 | 12 | 339 | 0.0 | 0.0 | 0.00 | 0.00 | 0.00 | 59 | 1025.9 |
| 20260507140352 | 12 | 282 | 0.0 | 0.0 | 0.00 | 0.00 | 0.00 | 64 | 1025.6 |
| 20260507140347 | 12 | 257 | 0.0 | 0.0 | 0.00 | 0.00 | 0.00 | 66 | 1025.9 |
| 20260507135341 | 12 | 274 | 0.0 | 0.0 | 0.00 | 0.00 | 0.00 | 68 | 1025.9 |
| 20260507134835 | 12 | 257 | 0.0 | 0.0 | 0.00 | 0.00 | 0.00 | 69 | 1025.9 |
| 20260507134331 | 11 | 271 | 0.0 | 0.0 | 0.00 | 0.00 | 0.00 | 69 | 1025.6 |
| 20260507133828 | 11 | 265 | 0.0 | 0.0 | 0.00 | 0.00 | 0.00 | 68 | 1025.6 |
| 20260507133821 | 11 | 266 | 0.0 | 0.0 | 0.00 | 0.00 | 0.00 | 68 | 1025.6 |
| 20260507132816 | 11 | 270 | 0.0 | 0.0 | 0.00 | 0.00 | 0.00 | 68 | 1025.6 |
| 20260507132311 | 12 | 270 | 0.0 | 0.0 | 0.00 | 0.00 | 0.00 | 66 | 1025.6 |
| 20260507131805 | 12 | 270 | 0.0 | 0.0 | 0.00 | 0.00 | 0.00 | 66 | 1025.6 |
| 20260507131301 | 12 | 270 | 0.0 | 0.0 | 0.00 | 0.00 | 0.00 | 65 | 1025.6 |
| 20260507130757 | 12 | 270 | 0.0 | 0.0 | 0.00 | 0.00 | 0.00 | 64 | 1025.3 |
| 20260507130747 | 12 | 270 | 0.0 | 0.0 | 0.00 | 0.00 | 0.00 | 62 | 1025.3 |
| 20260507130352 | 12 | 270 | 0.0 | 0.0 | 0.00 | 0.00 | 0.00 | 63 | 1025.3 |
| 20260507125242 | 12 | 270 | 0.0 | 0.0 | 0.00 | 0.00 | 0.00 | 62 | 1025.3 |
| 20260507125236 | 12 | 271 | 0.0 | 0.0 | 0.00 | 0.00 | 0.00 | 61 | 1025.3 |
| 20260507124230 | 12 | 273 | 0.0 | 0.0 | 0.00 | 0.00 | 0.00 | 61 | 1025.3 |
| 20260507123726 | 12 | 270 | 0.0 | 0.0 | 0.00 | 0.00 | 0.00 | 60 | 1025.3 |
| 20260507123220 | 12 | 271 | 0.0 | 0.0 | 0.00 | 0.00 | 0.00 | 60 | 1025.3 |
| 20260507122716 | 12 | 238 | 0.0 | 0.0 | 0.00 | 0.00 | 0.00 | 59 | 1025.3 |
| 20260507122212 | 12 | 248 | 0.0 | 0.0 | 0.00 | 0.00 | 0.00 | 58 | 1025.6 |
| 20260507122205 | 12 | 248 | 0.0 | 0.0 | 0.00 | 0.00 | 0.00 | 59 | 1025.3 |
| 20260507121200 | 12 | 247 | 0.0 | 0.0 | 0.00 | 0.00 | 0.00 | 59 | 1025.3 |
| 20260507120656 | 12 | 275 | 0.0 | 0.0 | 0.00 | 0.00 | 0.00 | 58 | 1025.3 |
| 20260507120648 | 12 | 193 | 0.0 | 0.0 | 0.00 | 0.00 | 0.00 | 59 | 1025.3 |
| 20260507120252 | 12 | 272 | 0.0 | 0.0 | 0.00 | 0.00 | 0.00 | 59 | 1025.3 |
| 20260507115141 | 12 | 205 | 0.0 | 0.0 | 0.00 | 0.00 | 0.00 | 59 | 1025.3 |
| 20260507114637 | 12 | 213 | 0.0 | 0.0 | 0.00 | 0.00 | 0.00 | 58 | 1025.3 |
| 20260507114632 | 12 | 63 | 0.0 | 0.0 | 0.00 | 0.00 | 0.00 | 58 | 1025.3 |
| 20260507113626 | 12 | 320 | 0.0 | 0.0 | 0.00 | 0.00 | 0.00 | 59 | 1025.3 |
| 20260507113121 | 12 | 250 | 0.0 | 0.0 | 0.00 | 0.00 | 0.00 | 59 | 1025.3 |
| 20260507112615 | 12 | 269 | 0.0 | 0.0 | 0.00 | 0.00 | 0.00 | 59 | 1025.3 |
| 20260507112111 | 12 | 252 | 0.0 | 0.0 | 0.00 | 0.00 | 0.00 | 59 | 1025.3 |
| 20260507111605 | 12 | 257 | 0.0 | 0.0 | 0.00 | 0.00 | 0.00 | 61 | 1025.3 |
| 20260507111104 | 12 | 231 | 0.0 | 0.0 | 0.00 | 0.00 | 0.00 | 59 | 1025.3 |
| 20260507111100 | 12 | 296 | 0.0 | 0.0 | 0.00 | 0.00 | 0.00 | 60 | 1025.3 |
| 20260507110050 | 12 | 231 | 0.0 | 0.0 | 0.00 | 0.00 | 0.00 | 58 | 1025.3 |
| 20260507105547 | 12 | 231 | 0.0 | 0.0 | 0.00 | 0.00 | 0.00 | 58 | 1024.8 |
| 20260507105542 | 12 | 231 | 0.0 | 0.0 | 0.00 | 0.00 | 0.00 | 55 | 1025.3 |
| 20260507104535 | 12 | 231 | 0.0 | 0.0 | 0.00 | 0.00 | 0.00 | 55 | 1024.8 |
| 20260507104030 | 12 | 218 | 0.0 | 0.0 | 0.00 | 0.00 | 0.00 | 53 | 1024.8 |
| 20260507103526 | 13 | 227 | 0.0 | 0.0 | 0.00 | 0.00 | 0.00 | 52 | 1025.3 |
| 20260507103020 | 13 | 228 | 0.0 | 0.0 | 0.00 | 0.00 | 0.00 | 51 | 1025.3 |
| 20260507102515 | 13 | 228 | 0.0 | 0.0 | 0.00 | 0.00 | 0.00 | 51 | 1025.3 |
| 20260507102012 | 13 | 234 | 0.0 | 0.0 | 0.00 | 0.00 | 0.00 | 48 | 1025.3 |
| 20260507102007 | 13 | 234 | 0.0 | 0.0 | 0.00 | 0.00 | 0.00 | 48 | 1025.3 |
| 20260507100959 | 13 | 234 | 0.0 | 0.0 | 0.00 | 0.00 | 0.00 | 48 | 1024.8 |
| 20260507100458 | 13 | 230 | 0.0 | 0.0 | 0.00 | 0.00 | 0.00 | 47 | 1025.3 |
| 20260507100451 | 13 | 230 | 0.0 | 0.0 | 0.00 | 0.00 | 0.00 | 47 | 1025.3 |
| 20260507095445 | 13 | 230 | 0.0 | 0.0 | 0.00 | 0.00 | 0.00 | 47 | 1025.3 |
| 20260507094941 | 13 | 230 | 0.0 | 0.0 | 0.00 | 0.00 | 0.00 | 47 | 1025.3 |
| 20260507094436 | 13 | 235 | 0.0 | 0.0 | 0.00 | 0.00 | 0.00 | 47 | 1025.6 |
| 20260507093930 | 13 | 234 | 0.0 | 0.0 | 0.00 | 0.00 | 0.00 | 47 | 1025.3 |
| 20260507093426 | 13 | 233 | 0.0 | 0.0 | 0.00 | 0.00 | 0.00 | 46 | 1025.3 |
| 20260507092920 | 13 | 233 | 0.0 | 0.0 | 0.00 | 0.00 | 0.00 | 45 | 1025.3 |
| 20260507092415 | 13 | 239 | 0.0 | 0.0 | 0.00 | 0.00 | 0.00 | 45 | 1025.3 |
| 20260507091911 | 13 | 224 | 0.0 | 0.0 | 0.00 | 0.00 | 0.00 | 45 | 1025.3 |
| 20260507091404 | 14 | 220 | 0.0 | 0.0 | 0.00 | 0.00 | 0.00 | 45 | 1025.3 |
| 20260507090901 | 14 | 273 | 0.0 | 0.0 | 0.00 | 0.00 | 0.00 | 45 | 1025.3 |
| 20260507090356 | 14 | 266 | 0.0 | 0.0 | 0.00 | 0.00 | 0.00 | 45 | 1025.3 |
| 20260507085849 | 14 | 206 | 0.0 | 0.0 | 0.00 | 0.00 | 0.00 | 44 | 1025.3 |
| 20260507085344 | 14 | 230 | 0.0 | 0.0 | 0.00 | 0.00 | 0.00 | 44 | 1025.3 |
| 20260507084841 | 14 | 225 | 0.0 | 0.0 | 0.00 | 0.00 | 0.00 | 44 | 1025.6 |
| 20260507084432 | 14 | 227 | 0.0 | 0.0 | 0.00 | 0.00 | 0.00 | 43 | 1025.6 |
| 20260507084335 | 14 | 227 | 0.0 | 0.0 | 0.00 | 0.00 | 0.00 | 43 | 1025.3 |
| 20260507084327 | 14 | 207 | 0.0 | 0.0 | 0.00 | 0.00 | 0.00 | 43 | 1025.3 |
| 20260507082819 | 14 | 168 | 0.0 | 0.0 | 0.00 | 0.00 | 0.00 | 43 | 1025.6 |
| 20260507082314 | 14 | 210 | 0.0 | 0.0 | 0.00 | 0.00 | 0.00 | 44 | 1025.6 |
| 20260507081811 | 14 | 221 | 0.0 | 0.0 | 0.00 | 0.00 | 0.00 | 44 | 1025.3 |
| 20260507081304 | 14 | 221 | 0.0 | 0.0 | 0.00 | 0.00 | 0.00 | 44 | 1025.3 |
| 20260507080800 | 14 | 221 | 0.0 | 0.0 | 0.00 | 0.00 | 0.00 | 43 | 1025.3 |
| 20260507080257 | 14 | 221 | 0.0 | 0.0 | 0.00 | 0.00 | 0.00 | 43 | 1025.3 |